Location: Frizzleburg
(41.0764°N, 80.4548°W)
Time: 15:26:06
(UTC+00:00)

Cosmos 1980 Rocket - Pass Details

Date: 17 November 2019
Orbit: 827 x 851 km, 71.0° (Epoch: 07 December)

Event Time Altitude Azimuth Distance (km) Brightness Sun altitude
Exits shadow 10:07:26 53° 256° (WSW) 1,038 2.2 -23.3°
Maximum altitude 10:07:33 53° 252° (WSW) 1,037 2.3 -23.3°
Drops below altitude 10° 10:13:01 10° 177° (S) 2,459 4.7 -22.3°
Sets 10:15:30 0° 172° (S) 3,387 5.5 -21.8°
